CW8826 Weather Reports


Display with metric or nautical units.
time (UTC)temp
F
wind
direction
speed
MPH
gust
MPH
rain 1hr
in
rain 24hr
in
rain mn
in
humidity
%
barometer
mb
20260503041017 60 113 11.0 17.0 0.00 0.00 0.00 27 1017.2
20260503040057 60 113 12.0 18.0 0.00 0.00 0.00 27 1017.1
20260503035018 58 90 14.0 19.0 0.00 0.00 0.00 31 1016.3
20260503034017 60 113 13.0 19.0 0.00 0.00 0.00 29 1016.2
20260503033018 60 113 13.0 17.0 0.00 0.00 0.00 29 1016.2
20260503032017 60 113 12.0 18.0 0.00 0.00 0.00 30 1015.8
20260503031058 60 113 10.0 15.0 0.00 0.00 0.00 30 1015.8
20260503030017 60 113 10.0 14.0 0.00 0.00 0.00 30 1015.7
20260503025017 61 113 10.0 16.0 0.00 0.00 0.00 30 1015.4
20260503024018 62 113 8.0 13.0 0.00 0.00 0.00 29 1015.3
20260503023037 63 113 4.0 7.0 0.00 0.00 0.00 29 1015.2
20260503022017 64 113 4.0 6.0 0.00 0.00 0.00 25 1015.9
20260503021018 65 135 2.0 4.0 0.00 0.00 0.00 24 1015.8
20260503020017 66 0.0 1.0 0.00 0.00 0.00 23 1016.1
20260503015018 66 0.0 2.0 0.00 0.00 0.00 22 1016.4
20260503014017 67 315 2.0 5.0 0.00 0.00 0.00 21 1016.4
20260503013037 67 315 2.0 4.0 0.00 0.00 0.00 20 1016.4
20260503012017 68 270 2.0 6.0 0.00 0.00 0.00 20 1016.4
20260503011016 68 315 2.0 6.0 0.00 0.00 0.00 20 1016.4
20260503010017 68 315 2.0 6.0 0.00 0.00 0.00 20 1016.4
20260503005017 69 315 4.0 9.0 0.00 0.00 0.00 20 1016.4
20260503004057 69 315 4.0 8.0 0.00 0.00 0.00 18 1016.5
20260503003017 70 0 5.0 12.0 0.00 0.00 0.00 17 1016.8
20260503002017 71 315 4.0 10.0 0.00 0.00 0.00 18 1017.2
20260503001017 71 315 5.0 9.0 0.00 0.00 0.00 17 1017.3
20260503000017 71 270 3.0 6.0 0.00 0.00 0.00 18 1017.4
20260502235017 71 315 3.0 8.0 0.00 0.00 0.00 16 1017.1
20260502234017 71 45 4.0 8.0 0.00 0.00 0.00 14 1017.1
20260502233018 71 315 5.0 10.0 0.00 0.00 0.00 13 1017.3
20260502232017 72 338 2.0 5.0 0.00 0.00 0.00 13 1017.8
20260502231017 72 248 3.0 7.0 0.00 0.00 0.00 13 1018.0
20260502230017 71 248 3.0 7.0 0.00 0.00 0.00 12 1018.2
20260502225017 71 248 4.0 7.0 0.00 0.00 0.00 13 1018.4
20260502224017 71 315 5.0 9.0 0.00 0.00 0.00 14 1018.5
20260502223038 72 270 2.0 5.0 0.00 0.00 0.00 14 1019.0
20260502222017 72 248 1.0 5.0 0.00 0.00 0.00 12 1018.7
20260502221137 71 315 4.0 9.0 0.00 0.00 0.00 13 1018.6
20260502220017 71 248 4.0 10.0 0.00 0.00 0.00 11 1018.7
20260502215018 71 225 2.0 7.0 0.00 0.00 0.00 12 1019.3
20260502214017 71 225 5.0 10.0 0.00 0.00 0.00 11 1019.4
20260502213017 70 203 3.0 6.0 0.00 0.00 0.00 12 1019.4
20260502212057 70 225 6.0 11.0 0.00 0.00 0.00 12 1019.5
20260502211038 69 248 4.0 10.0 0.00 0.00 0.00 11 1019.4
20260502210017 69 248 5.0 9.0 0.00 0.00 0.00 11 1019.6
20260502205037 69 135 5.0 11.0 0.00 0.00 0.00 12 1019.6
20260502204017 69 270 4.0 9.0 0.00 0.00 0.00 14 1019.8
20260502203017 70 225 4.0 8.0 0.00 0.00 0.00 14 1020.3
20260502202017 69 270 4.0 10.0 0.00 0.00 0.00 16 1020.4
20260502201038 68 248 5.0 11.0 0.00 0.00 0.00 16 1020.7
20260502200017 68 225 3.0 7.0 0.00 0.00 0.00 15 1020.7
20260502195017 69 225 5.0 12.0 0.00 0.00 0.00 16 1020.4
20260502194017 68 270 2.0 7.0 0.00 0.00 0.00 16 1020.5
20260502193017 68 225 5.0 11.0 0.00 0.00 0.00 16 1020.7
20260502192017 67 248 3.0 7.0 0.00 0.00 0.00 18 1020.5
20260502191037 68 248 3.0 6.0 0.00 0.00 0.00 17 1020.7
20260502190058 67 225 6.0 13.0 0.00 0.00 0.00 16 1020.9
20260502185018 67 135 4.0 12.0 0.00 0.00 0.00 15 1021.3
20260502184018 67 158 3.0 7.0 0.00 0.00 0.00 15 1021.4
20260502183017 67 135 3.0 5.0 0.00 0.00 0.00 17 1021.6
20260502182017 67 248 3.0 7.0 0.00 0.00 0.00 20 1021.4
20260502181017 66 225 3.0 6.0 0.00 0.00 0.00 19 1021.2
20260502164017 62 270 1.0 3.0 0.00 0.00 0.00 24 1022.3
20260502163017 61 270 2.0 6.0 0.00 0.00 0.00 24 1022.3
20260502162037 61 270 3.0 5.0 0.00 0.00 0.00 24 1022.0
20260502161037 61 248 2.0 4.0 0.00 0.00 0.00 24 1022.1
20260502152017 57 113 1.0 1.0 0.00 0.00 0.00 29 1022.4
20260502151037 56 113 1.0 1.0 0.00 0.00 0.00 31 1022.4
20260502123016 52 113 5.0 11.0 0.00 0.00 0.00 29 1021.9
20260502122016 53 113 6.0 12.0 0.00 0.00 0.00 28 1022.2
20260502121058 53 113 8.0 12.0 0.00 0.00 0.00 25 1022.3
20260502115036 53 135 4.0 8.0 0.00 0.00 0.00 27 1022.2
20260502114017 52 113 5.0 12.0 0.00 0.00 0.00 28 1022.3
20260502113037 52 113 6.0 15.0 0.00 0.00 0.00 28 1022.2
20260502112016 53 113 8.0 14.0 0.00 0.00 0.00 27 1022.2
20260502111017 53 90 6.0 10.0 0.00 0.00 0.00 29 1022.3
20260502110017 53 135 4.0 9.0 0.00 0.00 0.00 28 1022.3
20260502105017 53 113 8.0 14.0 0.00 0.00 0.00 27 1022.3
20260502104037 55 113 6.0 11.0 0.00 0.00 0.00 25 1022.7
20260502103017 55 68 9.0 17.0 0.00 0.00 0.00 25 1022.3
20260502102016 53 113 5.0 10.0 0.00 0.00 0.00 28 1022.3
20260502101016 53 113 8.0 14.0 0.00 0.00 0.00 28 1022.3
20260502091017 53 113 6.0 15.0 0.00 0.00 0.00 29 1022.2
20260502071017 51 90 11.0 16.0 0.00 0.00 0.00 31 1021.8
20260502070017 50 90 10.0 14.0 0.00 0.00 0.00 33 1021.5
20260502065016 51 135 5.0 10.0 0.00 0.00 0.00 32 1021.3
20260502064017 51 113 8.0 15.0 0.00 0.00 0.00 31 1021.2
20260502063037 53 113 5.0 12.0 0.00 0.00 0.00 29 1021.5
20260502062017 53 113 8.0 14.0 0.00 0.00 0.00 27 1021.0
20260502061017 52 113 11.0 17.0 0.00 0.00 0.00 30 1021.1
20260502060017 51 113 3.0 7.0 0.00 0.00 0.00 33 1020.7
20260502055017 51 113 7.0 16.0 0.00 0.00 0.00 36 1020.7
20260502054018 51 90 10.0 16.0 0.00 0.00 0.00 36 1020.7
20260502053017 51 113 10.0 14.0 0.00 0.00 0.00 38 1020.7
20260502052017 51 113 10.0 16.0 0.00 0.00 0.00 38 1020.4
20260502051017 53 113 10.0 16.0 0.00 0.00 0.00 38 1020.5
20260502050017 54 90 10.0 17.0 0.00 0.00 0.00 36 1020.5
20260502045017 52 113 8.0 13.0 0.00 0.00 0.00 42 1020.2
20260502044017 53 113 7.0 14.0 0.00 0.00 0.00 42 1020.2
20260502043039 54 113 3.0 8.0 0.00 0.00 0.00 40 1020.6
20260502042018 55 113 5.0 10.0 0.00 0.00 0.00 39 1020.2